Regional Weather Roundup
Issued by NWS

Home | Current Version | Previous Version | Graphics & Text | Print | Product List | Glossary On
Versions: 1 2 3 4 5 6 7 8 9 10 11 12 13 14 15 16 17 18 19 20 21 22 23 24 25 26 27 28 29
000
ASUS45 KGTF 041710
RWRMT
MONTANA HOURLY WEATHER ROUNDUP
NATIONAL WEATHER SERVICE GREAT FALLS MT
1100 AM MDT MON MAY 04 2015

NOTE: "FAIR" INDICATES FEW OR NO CLOUDS BELOW 12000 FEET WITH NO
SIGNIFICANT WEATHER AND/OR OBSTRUCTIONS TO VISIBILITY.

MTZ001>007-043-041800-
WEST OF THE DIVIDE

CITY           SKY/WX    TMP DP  RH WIND       PRES   REMARKS
KALISPELL      SUNNY     54  28  36 CALM      29.93F
MISSOULA       SUNNY     52  28  39 CALM      29.96F
BUTTE          MOSUNNY   59  32  36 E5        29.98F
DEER LODGE       N/A     57  32  38 E3        29.99F
EUREKA           N/A     52  27  37 SW3       29.96F
HAMILTON         N/A     57  27  30 NE3       29.93F
LIBBY            N/A     54  28  37 CALM      29.93F
$$

MTZ008-052>055-041800-
SOUTHWEST MONTANA

CITY           SKY/WX    TMP DP  RH WIND       PRES   REMARKS
BOZEMAN        SUNNY     57  38  48 CALM      29.97F
DILLON         SUNNY     59  35  40 VRB3      29.97F
$$

MTZ009-010-012-014-046-048-049-054-041800-
EAST SLOPES AND CENTRAL MONTANA

CITY           SKY/WX    TMP DP  RH WIND       PRES   REMARKS
CUT BANK       SUNNY     53  31  42 S6        29.93F
GREAT FALLS    SUNNY     60  35  39 VRB5      29.93F
MALMSTROM AFB  SUNNY     58  37  45 E3        29.93F
HELENA         SUNNY     58  32  37 N6        29.96F
$$

MTZ011-013-016-021-045-047-050-051-041800-
NORTH CENTRAL MONTANA

CITY           SKY/WX    TMP DP  RH WIND       PRES   REMARKS
HAVRE          SUNNY     63  36  36 NE10      29.93F
LEWISTOWN      SUNNY     65  42  43 E12       29.95F
CHINOOK          N/A     63  36  36 E14G21    29.95S
FORT BENTON      N/A     61  37  41 E3        29.93F
$$

MTZ017>020-022>042-056>058-061-062-041800-
EASTERN PLAINS

CITY           SKY/WX    TMP DP  RH WIND       PRES   REMARKS
BAKER          CLOUDY    56  41  57 SE26G36   30.15F
BILLINGS       MOSUNNY   59  39  47 CALM      30.00F
GLASGOW        LGT RAIN  65  31  28 SE20      30.03F
JORDAN           N/A     66  41  40 SE24G31   30.00F
LIVINGSTON     SUNNY     59  38  45 E6        29.98F
MILES CITY     SUNNY     65  42  43 SE18G25   30.04F
SIDNEY         SUNNY     66  28  24 SE18G28   30.13S
WOLF POINT     SUNNY     68  31  25 S18G29    30.07F
BIG TIMBER       N/A     55  39  54 E3        30.00F
FORSYTH          N/A     66  43  42 SE16G22   30.01F
PLENTYWOOD       N/A     63  27  25 SE14G21   30.13F
POPLAR           N/A     66  27  22 SE24      30.09F
$$

REGIONAL REPORTS...DAKOTAS

CITY           SKY/WX    TMP DP  RH WIND       PRES   REMARKS
WILLISTON      SUNNY     66  26  22 S13G21    30.14F
MINOT          MOSUNNY   64  22  20 SE9       30.19F
DICKINSON      SUNNY     62  31  31 S22G29    30.16F
BEACH          FAIR      59  37  44 S25G32    30.15S
CROSBY         PTSUNNY   64  25  22 S9        30.16F
WATFORD CITY   FAIR      64  27  24 S18G24    30.13F
BISMARCK       MOSUNNY   64  26  23 S13G18    30.23F
GRAND FORKS    MOSUNNY   63  30  28 S6        30.23R
FARGO          FAIR      63  28  26 VRB3      30.23R
BUFFALO SD       N/A     49  41  74 S20       30.13F
RAPID CITY     CLOUDY    47  39  74 NE6       30.22F
$$

REGIONAL REPORTS...WYOMING/IDAHO/WASHINGTON

CITY           SKY/WX    TMP DP  RH WIND       PRES   REMARKS
GILLETTE       PTSUNNY   55  40  56 SE22G32   30.08F
SHERIDAN       MOSUNNY   62  45  53 SE13      30.02S
BUFFALO WY     MOSUNNY   58  45  62 S13       30.07S
CODY           SUNNY     61  41  48 S6        30.01F
YELLOWSTONE LA   N/A     44  34  67 E3        30.14F
IDAHO FALLS    MOSUNNY   63  42  46 SW6       30.00S
SALMON           N/A     55  34  44 CALM      29.96F
BOISE          SUNNY     72  40  31 SE15G22   29.88F
SPOKANE        SUNNY     58  32  37 NE7       29.89F
$$

REGIONAL REPORTS...ALBERTA

CITY           SKY/WX    TMP DP  RH WIND       PRES   REMARKS
EDMONTON       PTSUNNY   54  30  40 SE16      29.96F
CALGARY        CLOUDY    57  23  26 VRB3      29.91F
LETHBRIDGE     SUNNY     55  34  44 W2        29.92F
MEDICINE HAT   MOSUNNY   61  34  36 CALM      29.93F
$$

REGIONAL REPORTS...SASKATCHEWAN

CITY           SKY/WX    TMP DP  RH WIND       PRES   REMARKS
SWIFT CURRENT  SUNNY     61  27  27 SE24G30   30.01F
REGINA         MOSUNNY   59  28  31 SE10G20   30.14F
SASKATOON      PTSUNNY   57  32  38 SE6       30.12S
$$



USA.gov is the U.S. government's official web portal to all federal, state and local government web resources and services.